Regional Weather Roundup
Issued by NWS

Home | Current Version | Previous Version | Text Only | Print | Product List | Glossary On
Versions: 1 2 3 4 5 6 7 8 9 10 11 12 13 14 15 16 17 18 19 20 21 22 23 24 25 26 27 28 29 30 31 32 33 34 35 36 37 38 39 40 41 42 43 44 45 46 47 48 49 50
000
ASUS43 KBIS 260810
RWRND

NORTH DAKOTA REGIONAL WEATHER ROUNDUP
NATIONAL WEATHER SERVICE BISMARCK ND
300 AM CDT WED APR 26 2017

NOTE: "FAIR" INDICATES FEW OR NO CLOUDS BELOW 12,000 FEET WITH NO
SIGNIFICANT WEATHER AND/OR OBSTRUCTIONS TO VISIBILITY.


NDZ001>003-009>011-017-260900-
NORTHWEST NORTH DAKOTA

CITY           SKY/WX    TMP DP  RH WIND       PRES   REMARKS
WILLISTON      FAIR      30  22  72 NE7       29.98S
MINOT          FAIR      29  22  75 N12       29.94F WCI  19
MINOT AFB      PTCLDY    28  20  71 N10       29.95F WCI  19
$$

NDZ018>021-031>035-040>046-260900-
SOUTHWEST NORTH DAKOTA

CITY           SKY/WX    TMP DP  RH WIND       PRES   REMARKS
BISMARCK       FAIR      34  25  69 N9        29.89F
DICKINSON      CLOUDY    31  24  75 NE7       29.89F
GARRISON         N/A     30  24  78 N7        29.92F
HETTINGER ARPT CLOUDY    30  26  85 N6        29.90F
$$

NDZ004>008-012>016-024-026-027-054-260900-
NORTHEAST NORTH DAKOTA

CITY           SKY/WX    TMP DP  RH WIND       PRES   REMARKS
GRAND FORKS    CLOUDY    33  27  78 NE20      29.85F
GRND FRKS AFB  CLOUDY    31  25  79 NE18G25   29.85F WCI  19
DEVILS LAKE    FAIR      30  24  78 NE16      29.88F WCI  19
$$

NDZ022-023-025-028>030-036>039-047>053-260900-
SOUTHEAST NORTH DAKOTA

CITY           SKY/WX    TMP DP  RH WIND       PRES   REMARKS
FARGO          FRZ RAIN  32  29  88 N20G28    29.76F
JAMESTOWN      CLOUDY    30  26  85 N17       29.82S WCI  18
$$





USA.gov is the U.S. government's official web portal to all federal, state and local government web resources and services.